STARLINK-11622, 63187

Orbit data source: Space-Track

STARLINK-11622, 63187 is a payload satellite owned by SpaceX/Seattle (US) in LEO that was launched on Thu, 13 Mar 2025 UTC via an FALCON 9 launch vehicle from the Air Force Eastern Test Range (AFETR). Payload-class satellites include a variety of spacecraft equipped with specific instruments for various scientific and technological missions. These include communications satellites like Starlink; space stations such as the ISS; scientific satellites like the Hubble; Earth observation satellites from companies like Planet Labs, Umbra, and HawkEye 360; GPS; miniature CubeSats for education and research; and military/defense satellites.

Loading next visibility...
Identifier
63187, 2025-048E
Orbit
LEO
Country
Flag of USUS
Related business
Manufacturer
SpaceX/Seattle
Mission
Operational Commercial Communications
Bus & Motor
STARLINK V2MD, Unknown motor
Mass
960 kg wet, ~910 kg dry
Launch date (UTC)
2025-03-13 (1 year ago)
Launch vehicle
FALCON 9
Launch site
Air Force Eastern Test Range (AFETR)
Object type
Payload
Rocket body
Debris
Shape & HBR
Box + 2 Pan, 18.1 m
Radar Cross Section
36.964 m², Large (>1 m²)

Expand to show TLE details & history
Last TLE update: 10 hours ago

TLE from 10 hours ago
0 STARLINK-11622
1 63187U 25048E   26171.41980093  .00227891  00000-0  17274-2 0  9997
2 63187  43.0005  61.0594 0000489 308.0562  52.0261 15.70892976 74673
Epoch: 2026-06-20T10:04Z
TLE epoch observation values (Epoch: 2026-06-20T10:04:30.800Z)
Latitude
-0.00005°
Longitude
1.29633°
Altitude
355.912 km
Speed
7.698 km/s
True Right ascension
04h 04m 14s
True Declination
0° 00' 00"
Sunlit
Object was in daylight at epoch
Visualization orbit readout
Latitude
Unknown
Longitude
Unknown
Altitude
Unknown
Speed
Unknown
Apparent Right ascension
Unknown
Apparent Declination
Unknown
Sunlit
N/A
Visualization observer readout
Local Sidereal Time
07:21:48
Azimuth
Unknown
Elevation
Unknown
Doppler factor
Unknown
Orbital elements
Apogee altitude
358.655 km
Perigee altitude
357.996 km
Semi-major axis
6,736.462 km
Eccentricity
0.00005
Inclination
43.0005°
RAAN
61.0594°
Arg. of periapsis
308.0562°
True anomaly
52.03052°
Mean anomaly
52.0261°
Eccentric anomaly
52.02831°
Mean motion
3.9255 °/min
Orbital period
91.71 mins
BSTAR
0.0017274
Loading maneuver chart data...
Computing Atmospheric mass density...
Loading historical data...
Loading historical data...
Loading historical data...
Loading historical data...
Loading historical data...
Loading historical data...
Loading historical data...

Documentation

Showing up to 5 results
|